Find Shiyan Weixing 7

NORAD ID: 39208 Int'l Des: 2013-037 Owner: CNSA Country: CN operational
LEOCIRCULARRETROGRADESSO

Live Position

Loading 3D Globe...

About Shiyan Weixing 7

Description loading...

Upcoming Passes

Passes for default location (London). Set your location on the main map for personalized predictions.

Altitude History

Loading altitude history...

Two-Line Element Set

1 39208U 13037A 26106.73513073 .00000350 00000-0 63455-4 0 9995
2 39208 98.0901 110.2790 0007548 353.2060 6.9043 14.72213794683160
Epoch: Apr 16, 2026 • Age: 7 hours

Current Status

Altitude 667.1 km
Velocity 7.53 km/s
Sub-Earth Point 78.04°N, 144.49°W
Launch Date Jul 19, 2013
Age 12.7 years
Type other

Technical Details

Classification Payload
Mass 500.00 kg
Dry Mass 500.00 kg
Total Mass 500.00 kg
Length 1.00 m
Diameter 1.00 m
Span 3.00 m
Shape Box + 2 Pan + boom
Manufacturer DFHZ
Bus Type SY
Phase Status In Orbit
Owner/State CNSA/CN

Most Searched